Regional Weather Roundup
Issued by NWS Wakefield, VA

Home | Current Version | Previous Version | Text Only | Print | Product List | Glossary Off
Versions: 1 2 3 4 5 6 7 8 9 10 11 12 13 14 15 16 17 18 19 20 21 22 23 24 25 26 27 28 29 30 31 32 33 34 35 36 37 38 39 40 41 42 43 44 45 46 47 48 49 50
030 ASUS41 KAKQ 230915 RWRAKQ REGIONAL WEATHER ROUNDUP NATIONAL WEATHER SERVICE WAKEFIELD VA 400 AM EST THU FEB 23 2017 Note: "fair" indicates few or no clouds below 12,000 feet with no significant weather and/or obstructions to visibility. * = Denotes station may not report precipitation (e.g., rain,snow,etc.), thunder or fog. VAZ042-051-052>054-056-231000- NORTHERN VIRGINIA CITY SKY/WX TMP DP RH WIND PRES REMARKS WASH NATIONAL MOCLDY 54 53 97 S3 29.88S DULLES PTCLDY 52 50 93 S6 29.86F FORT BELVOIR CLOUDY 56 52 88 CALM 29.87S QUANTICO CLOUDY 51 51 100 SW5 29.88F FREDERICKSBRG* PTCLDY 57 55 94 SW6 29.87F STAFFORD* CLOUDY 56 55 95 S6 29.91F WARRENTON CLOUDY 56 51 82 CALM 29.86F CULPEPER* CLOUDY 56 54 92 S3 29.88S MANASSAS* NOT AVBL LEESBURG* FOG 50 50 100 MISG 29.87F VSB 1 WINCHESTER MOCLDY 54 48 82 SW8 29.85S FRONT ROYAL* PTSUNNY 55 50 82 S6 29.85S LURAY* CLOUDY 55 54 94 CALM 29.86S $$ VAZ048-049-060>072-079>083-231000- CENTRAL AND SOUTH CENTRAL VIRGINIA CITY SKY/WX TMP DP RH WIND PRES REMARKS RICHMOND CLOUDY 52 52 100 S3 29.90S FOG CHESTERFIELD* CLOUDY 50 36 57 CALM 29.92S PETERSBURG* CLOUDY 51 50 97 CALM 29.91S FOG HANOVER MOCLDY 51 49 92 CALM 29.91F FOG TAPPAHANNOCK* MOCLDY 55 55 100 CALM 29.91S QUINTON* CLOUDY 52 52 100 S3 29.90S CHARLOTTSVILLE PTCLDY 53 51 93 SW6 29.88S FOG GORDONSVILLE* MOSUNNY 53 53 99 SW3 29.88S ORANGE* MOCLDY 54 52 94 CALM 29.90R LOUISA* CLOUDY 55 55 100 CALM 29.87F FOG BUMPASS* FAIR 51 51 100 SW7 29.89S FARMVILLE* FOG 50 50 100 CALM 29.89F VSB 1/4 CREWE* CLOUDY 48 48 100 CALM 29.90F VSB 3/4 FORT PICKETT* PTSUNNY 50 47 88 SW3 29.91S CHASE CITY* FAIR 48 47 95 CALM 29.91S CLARKSVILLE* CLOUDY 48 48 100 CALM 29.91S VSB 1/2 SOUTH HILL* CLOUDY 51 51 100 SW3 29.97S LAWRENCEVILLE* CLOUDY 53 52 97 MISG 29.91S EMPORIA* CLOUDY 50 50 100 CALM 29.93S FOG $$ VAZ088>098-231000- SOUTHEAST VIRGINIA CITY SKY/WX TMP DP RH WIND PRES REMARKS NORFOLK CLOUDY 58 54 86 SW5 29.92S VIRGINIA BEACH LGT RAIN 57 51 80 S6 29.92S NORFOLK NAVAL CLOUDY 59 52 77 S5 29.93S WEST POINT* CLOUDY 54 53 95 CALM 29.92S SALUDA* CLOUDY 56 54 91 S3 29.90S NEWPORT NEWS CLOUDY 57 53 86 SW5 29.92S LANGLEY AFB LGT RAIN 58 55 88 S6 29.92R FORT EUSTIS CLOUDY 55 52 88 S3 29.89S WILLIAMSBURG* MOCLDY 55 55 100 CALM 29.92S HR EXEC AP* CLOUDY 55 52 88 CALM 29.91S FRANKLIN* CLOUDY 55 52 90 S3 29.93S US460-WAKEFLD CLOUDY 54 53 97 CALM 29.92S $$ VAZ020-022-025-037-045-231000- WEST CENTRAL AND SOUTHWEST VIRGINIA CITY SKY/WX TMP DP RH WIND PRES REMARKS STAUNTON* CLEAR 49 48 95 CALM 29.90S WAYNESBORO* MOSUNNY 49 47 96 CALM 29.89S HOT SPRINGS VA CLOUDY 50 50 100 W12 29.92S LYNCHBURG CLOUDY N/A N/A N/A MISG 29.91F DANVILLE FOG 48 48 100 CALM 29.91S VSB 1/4 SOUTH BOSTON* CLOUDY 47 46 95 CALM 29.91F VSB 1/2 MARTINSVILLE FOG 49 48 98 CALM 29.93F VSB 1/4 ROANOKE FOG 50 50 100 NW5 29.92S VSB 1/2 BLACKSBURG FOG 44 44 100 CALM 29.94S VSB 1/2 DUBLIN* FOG 47 47 100 CALM 29.93S VSB 1 MARION* FOG 44 43 96 CALM 29.95S VSB 1/4 HILLSVILLE* MOCLDY 50 50 97 CALM 29.91F RICHLANDS* FAIR 49 49 100 SE3 29.90F WISE* MOCLDY 50 50 100 CALM 29.91S FOG ABINGDON* FOG 46 46 100 E7 29.91S VSB 3/4 $$ MDZ021>025-VAZ099-100-231000- SOUTHERN MARYLAND AND THE DELMARVA PENINSULA CITY SKY/WX TMP DP RH WIND PRES REMARKS PATUXENT RIVER CLOUDY 50 49 96 CALM 29.89S BAY BRIDGE APT CLOUDY 52 52 100 S6 29.88S LEONARDTOWN CLOUDY 54 50 87 S3 29.90S DOVER CLOUDY 46 46 100 CALM 29.88S FOG GEORGETOWN CLOUDY 54 52 93 S5 29.90S EASTON CLOUDY 55 52 89 SW6 29.92S CAMBRIDGE CLOUDY 54 50 87 S5 29.89F SALISBURY LGT RAIN 55 52 89 S6 29.91R OCEAN CITY CLOUDY 52 48 86 SW6 29.92S WALLOPS ISLAND CLOUDY 51 50 96 S10 29.92F ACCOMACK* CLOUDY 54 51 89 S7 29.92R $$ NCZ012>017-030>032-231000- NORTH CENTRAL AND EASTERN NORTH CAROLINA CITY SKY/WX TMP DP RH WIND PRES REMARKS ROANOKE RAPIDS CLOUDY 52 52 100 CALM 29.92S RALEIGH CLOUDY 56 53 90 CALM 29.91F ELIZABETH CITY CLOUDY 54 51 90 SE3 29.94R AHOSKIE* N/A 53 51 95 CALM 29.93S EDENTON* CLOUDY 54 51 89 CALM 29.93S CURRITUCK* CLOUDY 56 52 88 CALM 29.94R KILL DEVIL HLS NOT AVBL MANTEO CLOUDY 57 53 86 CALM 29.94S CAPE HATTERAS CLOUDY 59 57 93 CALM 29.93S TARBORO* NOT AVBL GOLDSBORO CLOUDY 53 53 100 CALM 29.90S WASHINGTON CLOUDY 51 50 93 CALM 29.93S GREENVILLE CLOUDY 52 52 100 CALM 29.94S NEW BERN CLOUDY 51 50 96 CALM 29.93F WILMINGTON CLOUDY 54 54 100 E3 29.89F $$ VAZ048-231000- ELSEWHERE CITY SKY/WX TMP DP RH WIND PRES REMARKS HARRISBURG PA MOCLDY 44 42 93 NE3 29.85F BALTIMORE MOCLDY 48 46 93 CALM 29.87S ANNAPOLIS CLOUDY 49 49 100 S3 29.87S FOG ANDREWS AFB MOCLDY 55 53 92 SW7 29.86F PHILADELPHIA FOG 48 48 100 S5 29.90S VSB 1/4 HENDERSON NC CLOUDY 49 48 97 CALM 29.91F GREENSBORO FOG 50 50 100 CALM 29.90S VSB 1/8 ROCKY MOUNT CLOUDY 51 51 100 CALM 29.93R $$ VAZ100-231000- MARINE STATION/POSITION TIME TEMP WIND PRES WAVE SWELL AIR SEA DIR/SP/G HT/PER HT/PER (UTC) (F) (DEG/KT/KT) (MB) (FT/S) (FT/S) CAPE MAY NJ 0848 50 43 160/ 4/ 7 1012.0F LEWES DE 0848 56 43 210/ 5/ 9 1012.3F OCEAN-CITY-INLET 0848 48 44 220/ 10/ 12 1013.4S WACHAPREAGUE VA 0848 52 50 210/ 4/ 6 1013.2R THOMAS POINT MD 0900 47 43 170/ 8/ 9 N/A GOOSES REEF MD 0900 46 44 170/ 10/ 12 1012.3 COVE POINT MD 0848 48 190/ 8/ 9 1012.6F SOLOMONS ISLAND 0848 53 44 110/ 3/ 3 N/A BISHOPS HEAD MD 0848 48 49 150/ 8/ 10 1012.6F PINEY POINT MD 0848 160/ 4/ 4 N/A POTOMAC MD 0900 49 46 160/ 2/ 2 1011.4 0 CAMBRIDGE MD 0848 54 42 180/ 5/ 7 1011.4F LEWISETTA VA 0848 55 45 230/ 4/ 5 1012.0F RAPPAHANNOCK LGT 0848 190/ 10/ 11 1013.5R YORK RVR RNG VA 0848 56 210/ 9/ 9 1012.2S YORKTOWN VA 0848 57 47 200/ 6/ 8 1012.5S JAMESTOWN VA 0900 55 50 110/ 4/ 4 N/A 0 DOMINION TERM VA 0848 55 260/ 1/ 3 1013.1F KIPTOPEKE VA 0848 47 160/ 6/ 6 N/A CHES BAY BRIDGE 0848 58 47 250/ 6/ 6 1013.1R CAPE HENRY VA 0848 60 220/ 4/ 6 N/A WILLOUBY STN VA 0848 58 200/ 7/ 7 1014.0S S CRANEY ISL VA 0848 56 180/ 4/ 5 1012.9S CAPE HENRY BUOY 0842 49 N/A 3/11 2/11 OFFSHORE WE BUOY 0851 48 N/A 3/ 8 2/11 64NM E OF VA BCH 0850 58 54 170/ 8/ 8 1013.3F 3/10 3/10 DUCK PIER NC 0848 52 48 150/ 10/ 10 1013.0S 44100 DUCK FRF 0835 48 N/A 3/11 2/11 44056 DUCK FRF 0830 50 N/A 3/ 8 2/11 OREGON INLET NC 0848 170/ 2/ 3 N/A HATTERAS NC 0848 64 60 170/ 3/ 6 1013.1S DIAMOND SHLS NC 0850 68 74 170/ 14/ 17 1013.3R 3/10 2/10 CAPE LOOKOUT NC 0900 67 120/ 8/ 9 1012.7R $$

USA.gov is the U.S. government's official web portal to all federal, state and local government web resources and services.